[[{"header":{"parameterUnit":"m.s-1","parameterCategory":1,"la1":30.2991,"la2":30.254,"lo1":-89.0895,"lo2":-89.0444,"dy":0.0017,"dx":0.0017,"nx":28,"ny":28,"refTime":"2024-02-15T09:00:00:Z","depth":0,"parameterNumber":2,"parameterNumberName":"U-component_of_WINDS"},"data":[0,0,0,0,0,0,0,0,0,0,0,0,0,0,0,0,0,0,0,0,0,0,0,0,0,0,0,0,0,0,0,0,0,0,0,0,0,0,0,0,0,0,0,0,0,0,0,0,0,0,0,0,0,0,0,0,0,0,-0.5647,-0.5647,0,-0.5655,-0.5655,-0.5655,-0.5614,-0.5613,-0.5612,-0.5611,-0.5623,-0.5625,-0.5626,0,0,0,0,0,0,0,0,0,0,0,0,0,-0.56,-0.5601,-0.5647,-0.5647,-0.5647,-0.5655,-0.5655,-0.5655,-0.5614,-0.5613,-0.5611,-0.561,-0.5623,-0.5624,-0.5626,0,0,0,0,0,0,0,0,0,0,0,0,0,-0.5616,-0.5601,-0.5647,-0.5627,-0.5626,-0.5655,-0.5655,-0.5656,-0.5615,-0.5613,-0.5611,-0.5609,-0.5622,-0.5624,-0.5626,-0.5676,0,0,-0.5633,-0.5634,0,0,0,0,0,0,0,0,-0.5615,-0.5617,-0.563,-0.5629,-0.5627,-0.5632,-0.5643,-0.5663,-0.5615,-0.5619,-0.561,-0.5608,-0.5628,-0.5629,-0.5635,-0.5677,-0.5677,-0.5633,-0.5635,-0.5636,-0.5636,0,0,0,0,0,0,0,-0.5614,-0.5617,-0.565,-0.563,-0.5628,-0.562,-0.562,-0.5647,-0.5634,-0.5618,-0.5615,-0.5617,-0.5627,-0.5633,-0.5635,-0.5678,-0.5633,-0.5635,-0.5637,-0.5637,-0.5764,-0.5766,0,0,0,0,0,0,-0.5615,-0.5616,-0.565,-0.565,-0.5616,-0.5622,-0.5622,-0.5632,-0.5633,-0.5631,-0.5618,-0.5615,-0.563,-0.5633,-0.5635,-0.5695,-0.5636,-0.5638,-0.5639,-0.5762,-0.5764,-0.5767,0,0,0,0,0,0,-0.5614,-0.5618,-0.565,-0.5633,-0.5636,-0.5625,-0.5636,-0.5633,-0.5639,-0.5633,-0.5631,-0.5627,-0.5629,-0.5632,-0.5667,-0.5695,-0.5639,-0.5641,-0.5759,-0.5763,-0.5765,-0.5815,0,0,0,0,0,0,-0.5613,-0.5618,-0.5635,-0.5633,-0.5637,-0.5679,-0.5638,-0.5635,-0.5643,-0.5638,-0.5641,-0.5639,-0.5628,-0.5664,-0.5669,-0.5697,-0.5642,-0.5757,-0.5761,-0.5764,-0.581,-0.5819,-0.5826,0,0,0,0,0,-0.5611,-0.5649,-0.5636,-0.5641,-0.5658,-0.5681,-0.5683,-0.5668,-0.5645,-0.5664,-0.566,-0.5639,-0.5691,-0.5668,-0.5673,-0.5702,-0.5755,-0.576,-0.5764,-0.5807,-0.5817,-0.5826,0,0,0,0,0,0,-0.5656,-0.5648,-0.5634,-0.5672,-0.5677,-0.5674,-0.5696,-0.5679,-0.5692,-0.5687,-0.5669,-0.567,-0.5708,-0.5709,-0.5683,-0.5752,-0.5719,-0.5725,-0.575,-0.576,-0.5768,-0.5767,-0.5644,0,0,0,0,0,-0.567,-0.5687,-0.5681,-0.5715,-0.5718,-0.5707,-0.5716,-0.5704,-0.5709,-0.5712,-0.571,-0.5717,-0.5736,-0.5748,-0.5764,-0.5811,-0.5812,-0.5834,-0.5842,-0.5848,-0.5854,-0.5881,-0.5891,-0.5782,-0.5782,-0.5781,0,0,-0.5699,-0.5698,-0.571,-0.5724,-0.5726,-0.5747,-0.5709,-0.5732,-0.5747,-0.5716,-0.5748,-0.5748,-0.5755,-0.5796,-0.5814,-0.5798,-0.5884,-0.5854,-0.5859,-0.5861,-0.5886,-0.5897,-0.5906,-0.5785,-0.5784,-0.5784,0,0,-0.5763,-0.5763,-0.5793,-0.5796,-0.58,-0.5793,-0.58,-0.58,-0.5798,-0.583,-0.5808,-0.5827,-0.5858,-0.5864,-0.5872,-0.5942,-0.5924,-0.5948,-0.5989,-0.6016,-0.6024,-0.6032,-0.6058,-0.6068,-0.5953,-0.5953,-0.5953,0,-0.58,-0.5828,-0.581,-0.5835,-0.5843,-0.5815,-0.5846,-0.585,-0.586,-0.5868,-0.5849,-0.5889,-0.5891,-0.5935,-0.5952,-0.5958,-0.5968,-0.5947,-0.6024,-0.6032,-0.6038,-0.6063,-0.6073,-0.5956,-0.5956,-0.5955,-0.5955,0,-0.5873,-0.5893,-0.5917,-0.5927,-0.5937,-0.5965,-0.5954,-0.5967,-0.5955,-0.5951,-0.5985,-0.5988,-0.6005,-0.6015,-0.6003,-0.6057,-0.6047,-0.6027,-0.5994,-0.6052,-0.6075,-0.6084,-0.596,-0.5959,-0.5958,-0.5958,0,0,-0.5964,-0.5965,-0.5974,-0.5979,-0.5983,-0.5999,-0.6027,-0.6042,-0.6055,-0.6064,-0.6088,-0.6116,-0.6098,-0.6106,-0.6096,-0.6119,-0.6177,-0.6096,-0.6096,-0.6112,-0.6239,-0.6254,-0.6266,-0.6165,-0.6167,-0.6168,-0.6239,0,-0.6028,-0.6073,-0.6059,-0.6106,-0.6126,-0.6101,-0.6125,-0.6132,-0.6129,-0.6147,-0.6145,-0.6165,-0.6139,-0.6144,-0.6166,-0.6165,-0.6202,-0.616,-0.6189,-0.619,-0.6188,-0.6277,-0.6293,-0.636,-0.6247,-0.6249,-0.625,0,-0.6107,-0.6118,-0.6167,-0.6169,-0.6177,-0.6199,-0.6214,-0.6231,-0.6239,-0.6235,-0.6246,-0.6232,-0.6262,-0.6229,-0.6271,-0.6243,-0.6254,-0.6256,-0.6258,-0.6261,-0.6224,-0.6283,-0.638,-0.6391,-0.6264,-0.6263,-0.6262,0,-0.617,-0.6197,-0.623,-0.6235,-0.6238,-0.6255,-0.6258,-0.6263,-0.6275,-0.6288,-0.6296,-0.6314,-0.6324,-0.6339,-0.633,-0.6307,-0.6375,-0.6341,-0.6375,-0.6375,-0.639,-0.6389,-0.6491,-0.6397,-0.6397,-0.6397,-0.6397,0,-0.6242,-0.6273,-0.6258,-0.6279,-0.6314,-0.6299,-0.6335,-0.6335,-0.6341,-0.6362,-0.6343,-0.6364,-0.6351,-0.6373,-0.6367,-0.6404,-0.6408,-0.6408,-0.6406,-0.641,-0.641,-0.6417,-0.6413,-0.6399,-0.6399,-0.6398,-0.6398,0,-0.6317,-0.6309,-0.6343,-0.6344,-0.6345,-0.6371,-0.6373,-0.6393,-0.6389,-0.6417,-0.6423,-0.6419,-0.6442,-0.6436,-0.6462,-0.6458,-0.6506,-0.6498,-0.6503,-0.6501,-0.6535,-0.6533,-0.6646,-0.6661,-0.6557,-0.6558,-0.6558,0,-0.6364,-0.6387,-0.6391,-0.6403,-0.6407,-0.6427,-0.6439,-0.6426,-0.644,-0.6452,-0.6471,-0.6493,-0.651,-0.655,-0.655,-0.6571,-0.6564,-0.6603,-0.6567,-0.6571,-0.6566,-0.6565,-0.6568,-0.661,-0.6611,-0.6612,-0.6613,0,-0.6448,-0.6443,-0.646,-0.6476,-0.649,-0.6502,-0.6512,-0.6524,-0.6513,-0.6529,-0.6553,-0.6566,-0.6593,-0.6616,-0.6636,-0.6641,-0.6626,-0.6624,-0.6633,-0.6637,-0.6639,-0.664,-0.6522,-0.6621,-0.662,-0.662,-0.6619,-0.6619,-0.6511,-0.6532,-0.6538,-0.6557,-0.6564,-0.6575,-0.6594,-0.6594,-0.6613,-0.6633,-0.6625,-0.6653,-0.6663,-0.6688,-0.6695,-0.6719,-0.6704,-0.6717,-0.6721,-0.6724,-0.6729,-0.6636,-0.6722,-0.6722,-0.6722,-0.6722,-0.6721,0,-0.6595,-0.6598,-0.6617,-0.6632,-0.6648,-0.6632,-0.6643,-0.6659,-0.6683,-0.6693,-0.671,-0.6739,-0.6762,-0.6765,-0.6787,-0.6806,-0.68,-0.6812,-0.6811,-0.6813,-0.674,-0.673,-0.6817,-0.6817,-0.6817,-0.6817,-0.6817,-0.6817,-0.6641,-0.6675,-0.6671,-0.6709,-0.6713,-0.6739,-0.6747,-0.6758,-0.6766,-0.6799,-0.6817,-0.6818,-0.6827,-0.685,-0.6871,-0.6872,-0.6881,-0.6897,-0.6895,-0.6827,-0.6817,-0.6808,-0.6799,-0.6899,-0.6899,-0.6966,-0.6966,-0.6967]},{"header":{"parameterUnit":"m.s-1","parameterCategory":1,"la1":30.2991,"la2":30.254,"lo1":-89.0895,"lo2":-89.0444,"dy":0.0017,"dx":0.0017,"nx":28,"ny":28,"refTime":"2024-02-15T09:00:00:Z","depth":0,"parameterNumber":3,"parameterNumberName":"V-component_of_WINDS"},"data":[0,0,0,0,0,0,0,0,0,0,0,0,0,0,0,0,0,0,0,0,0,0,0,0,0,0,0,0,0,0,0,0,0,0,0,0,0,0,0,0,0,0,0,0,0,0,0,0,0,0,0,0,0,0,0,0,0,0,1.7227,1.7228,0,1.7304,1.7305,1.7306,1.7341,1.7341,1.7341,1.7341,1.742,1.7422,1.7424,0,0,0,0,0,0,0,0,0,0,0,0,0,1.7109,1.7111,1.7227,1.7228,1.7229,1.7304,1.7305,1.7306,1.7341,1.7341,1.7341,1.7341,1.7419,1.7422,1.7424,0,0,0,0,0,0,0,0,0,0,0,0,0,1.717,1.7111,1.7227,1.7255,1.7259,1.7304,1.7305,1.7307,1.7341,1.7341,1.7341,1.7341,1.7418,1.7421,1.7425,1.7447,0,0,1.7435,1.7436,0,0,0,0,0,0,0,0,1.7167,1.7175,1.725,1.7253,1.7257,1.7313,1.7293,1.7354,1.7341,1.731,1.7341,1.7341,1.7384,1.739,1.7405,1.7451,1.7454,1.7435,1.7437,1.7438,1.7439,0,0,0,0,0,0,0,1.7163,1.7172,1.7257,1.7251,1.7255,1.7264,1.7273,1.7304,1.7347,1.7312,1.7315,1.7324,1.7386,1.7402,1.7407,1.7456,1.7435,1.7438,1.744,1.7441,1.7524,1.7525,0,0,0,0,0,0,1.7154,1.7168,1.7255,1.726,1.7211,1.7266,1.7276,1.7295,1.7346,1.7354,1.7324,1.7325,1.7396,1.7403,1.741,1.744,1.7438,1.7441,1.7443,1.7524,1.7524,1.7525,0,0,0,0,0,0,1.7151,1.7161,1.7252,1.7215,1.7227,1.7268,1.729,1.7297,1.7312,1.7355,1.7363,1.7332,1.7396,1.7405,1.7438,1.7444,1.7443,1.7446,1.7524,1.7524,1.7525,1.7501,0,0,0,0,0,0,1.7147,1.716,1.7169,1.7215,1.7229,1.7278,1.729,1.7298,1.7318,1.7321,1.7365,1.7372,1.7397,1.7433,1.7441,1.7448,1.7448,1.7523,1.7524,1.7524,1.7501,1.7501,1.75,0,0,0,0,0,1.7143,1.7159,1.7169,1.718,1.7241,1.7279,1.7287,1.7315,1.7318,1.7328,1.7355,1.7371,1.7442,1.7436,1.7446,1.7454,1.7523,1.7524,1.7524,1.7502,1.7501,1.75,0,0,0,0,0,0,1.7113,1.7166,1.7177,1.7209,1.7239,1.7284,1.7297,1.7313,1.7343,1.7344,1.7378,1.7387,1.7417,1.7439,1.7431,1.7479,1.7484,1.7486,1.7463,1.7463,1.7462,1.7456,1.7451,0,0,0,0,0,1.711,1.7136,1.7181,1.7204,1.7219,1.7255,1.7273,1.7292,1.7325,1.7338,1.7368,1.7398,1.7428,1.7446,1.7476,1.7505,1.7515,1.7515,1.7514,1.7513,1.7515,1.7532,1.7533,1.7527,1.7527,1.7527,0,0,1.7104,1.7136,1.7151,1.7199,1.7225,1.7251,1.7266,1.7293,1.7313,1.7342,1.7374,1.7397,1.7434,1.7465,1.748,1.7484,1.7519,1.7514,1.7513,1.7515,1.7533,1.7534,1.7534,1.7527,1.7527,1.7527,0,0,1.7107,1.7134,1.7156,1.7182,1.7221,1.7245,1.725,1.7293,1.731,1.7343,1.7365,1.7389,1.7439,1.7465,1.7484,1.7497,1.7512,1.7505,1.7501,1.7517,1.7518,1.7518,1.7523,1.7524,1.7507,1.7507,1.7507,0,1.7095,1.7136,1.7166,1.7192,1.7213,1.724,1.7263,1.7286,1.7332,1.7346,1.735,1.7413,1.744,1.7477,1.748,1.7495,1.7502,1.75,1.7515,1.7516,1.7517,1.7522,1.7524,1.7506,1.7506,1.7506,1.7506,0,1.7119,1.7147,1.716,1.7204,1.7227,1.7251,1.7285,1.7304,1.7321,1.7345,1.7378,1.7412,1.7448,1.7458,1.7476,1.7498,1.75,1.7509,1.7515,1.7516,1.7521,1.7523,1.7504,1.7505,1.7505,1.7505,0,0,1.7105,1.7165,1.717,1.719,1.7235,1.7258,1.7283,1.7319,1.7335,1.7366,1.7388,1.743,1.7439,1.7461,1.7481,1.7496,1.7504,1.7503,1.7505,1.7502,1.7531,1.7524,1.7526,1.7514,1.7515,1.7515,1.7528,0,1.7114,1.7161,1.7189,1.7225,1.7252,1.7278,1.7301,1.7331,1.7354,1.7379,1.7405,1.7434,1.7443,1.7457,1.7472,1.7499,1.751,1.7499,1.7536,1.7537,1.7526,1.7528,1.7521,1.7532,1.753,1.7531,1.7531,0,1.7131,1.7162,1.72,1.7242,1.7255,1.7274,1.731,1.7334,1.7368,1.7384,1.7409,1.7429,1.7458,1.7461,1.7501,1.7492,1.7509,1.7525,1.7526,1.7531,1.7534,1.7533,1.7536,1.7538,1.7534,1.7534,1.7534,0,1.7117,1.7168,1.7198,1.7215,1.7265,1.7278,1.7299,1.7334,1.7354,1.7385,1.7398,1.7431,1.745,1.7475,1.7504,1.7504,1.7541,1.7547,1.7555,1.7554,1.7562,1.7561,1.7567,1.7572,1.7572,1.7572,1.7572,0,1.7125,1.7147,1.7192,1.7211,1.7237,1.7269,1.7294,1.7318,1.7348,1.7371,1.7396,1.7418,1.7454,1.748,1.7503,1.7533,1.7541,1.7554,1.756,1.7552,1.755,1.7564,1.7564,1.7572,1.7572,1.7572,1.7572,0,1.7114,1.7145,1.7179,1.7224,1.7235,1.7253,1.7291,1.731,1.7334,1.7363,1.7372,1.741,1.7442,1.7474,1.7516,1.7532,1.7561,1.7568,1.7549,1.7552,1.7559,1.7558,1.7574,1.7578,1.7579,1.7579,1.7579,0,1.7116,1.7135,1.7181,1.7199,1.7219,1.7247,1.7268,1.73,1.732,1.7361,1.7375,1.7409,1.7438,1.7487,1.7519,1.7552,1.7561,1.7564,1.7566,1.7557,1.7561,1.756,1.7562,1.7563,1.7563,1.7563,1.7563,0,1.7118,1.7133,1.7161,1.7196,1.722,1.7248,1.7277,1.729,1.7328,1.7349,1.7383,1.7405,1.7449,1.7482,1.7519,1.7541,1.7558,1.7562,1.7565,1.7558,1.7546,1.7553,1.7547,1.7561,1.7561,1.7562,1.7562,1.7562,1.7115,1.7132,1.7167,1.7199,1.7224,1.7251,1.7271,1.7298,1.7326,1.7364,1.7381,1.7415,1.7449,1.75,1.7522,1.7548,1.7553,1.7558,1.7559,1.756,1.7558,1.7541,1.7555,1.7555,1.7555,1.7555,1.7555,0,1.7118,1.7142,1.717,1.7211,1.7235,1.7249,1.7283,1.7302,1.7331,1.7362,1.739,1.7428,1.746,1.7494,1.7529,1.7543,1.7552,1.7551,1.7551,1.7555,1.7552,1.7546,1.7544,1.7544,1.7544,1.7544,1.7544,1.7544,1.7122,1.7153,1.7171,1.7215,1.7239,1.7272,1.7289,1.7314,1.7339,1.738,1.7407,1.743,1.7462,1.7499,1.7529,1.7538,1.755,1.7547,1.7558,1.7555,1.7556,1.7556,1.755,1.7549,1.7549,1.7559,1.7559,1.7559]}]]